Wray, CO

4:41 AM MDT on October 01, 2016 (GMT -0600)
Wray Municipal Airport

Weather History for K2V5 - May, 2014

Change the Weather History Date:

Tuesday, May 6, 2014

  Actual Average (KHEQ) Record (KHEQ)
Temperature  
Mean Temperature 64 °F -  
Max Temperature 82 °F 69 °F 91 °F (2016)
Min Temperature 46 °F 42 °F 35 °F (2013)
Degree Days  
Heating Degree Days 1    
Growing Degree Days 14 (Base 50)    
Moisture  
Dew Point 46 °F    
Average Humidity 54    
Maximum Humidity 93    
Minimum Humidity 26    
Precipitation  
Precipitation 0.00 in - - ()
Sea Level Pressure  
Sea Level Pressure 29.61 in    
Wind  
Wind Speed 9 mph (ESE)    
Max Wind Speed 17 mph    
Max Gust Speed 24 mph    
Visibility 10 miles    
Events      
Averages and records for this station are not official NWS values.
T = Trace of Precipitation, MM = Missing Value Source: NWS Daily Summary

Daily Weather History Graph

Daily Weather History Graph

Search for Another Location

Airport or City:

Trip Planner

Search our weather history database for the weather conditions in past years. The results will help you decide how hot, cold, wet, or windy it might be!

Date:

Astronomy

May. 06, 2014 Rise Set
Actual Time 5:42 AM MDT 7:49 PM MDT
Civil Twilight 5:12 AM MDT 8:18 PM MDT
Nautical Twilight 4:36 AM MDT 8:55 PM MDT
Astronomical Twilight 3:56 AM MDT 9:35 PM MDT
Moon 12:00 PM MDT (5/6) 1:09 AM MDT (5/6)
Length of Visible Light 15h 06m
Length of Day
14h 06m
Waxing Crescent, 46% of the Moon is Illuminated
May 6
Waxing Crescent
May 6
First Quarter
May 14
Full
May 21
Last Quarter
May 28
New

Hourly Weather History & Observations

Time (MDT) Temp. Windchill Dew Point Humidity Pressure Visibility Wind Dir Wind Speed Gust Speed Precip Events Conditions
12:15 AM 56.7 °F - 45.7 °F 67% 29.74 in 10.0 mi ESE 12.7 mph 18.4 mph N/A   Mostly Cloudy
12:35 AM 56.7 °F - 45.7 °F 67% 29.74 in 10.0 mi SE 15.0 mph - N/A   Overcast
12:55 AM 56.3 °F - 45.9 °F 68% 29.73 in 10.0 mi SE 13.8 mph - N/A   Overcast
1:15 AM 56.3 °F - 45.7 °F 68% 29.73 in 10.0 mi ESE 10.4 mph - N/A   Overcast
1:35 AM 56.5 °F - 46.0 °F 68% 29.71 in 10.0 mi East 5.8 mph - N/A   Overcast
1:55 AM 55.9 °F - 45.9 °F 69% 29.70 in 10.0 mi SE 10.4 mph - N/A   Scattered Clouds
2:35 AM 53.8 °F - 45.7 °F 74% 29.69 in 10.0 mi South 6.9 mph - N/A   Mostly Cloudy
2:55 AM 55.2 °F - 46.4 °F 72% 29.69 in 10.0 mi South 12.7 mph - N/A   Overcast
3:15 AM 55.8 °F - 46.4 °F 71% 29.69 in 10.0 mi South 10.4 mph - N/A   Overcast
3:35 AM 54.7 °F - 46.4 °F 74% 29.69 in 10.0 mi South 10.4 mph - N/A   Mostly Cloudy
3:55 AM 53.8 °F - 46.0 °F 75% 29.68 in 10.0 mi SSE 10.4 mph - N/A   Scattered Clouds
4:15 AM 53.6 °F - 45.7 °F 75% 29.67 in 10.0 mi South 6.9 mph - N/A   Clear
4:35 AM 50.0 °F - 44.6 °F 82% 29.66 in 10.0 mi South 8.1 mph - N/A   Clear
4:55 AM 49.5 °F - 44.6 °F 83% 29.68 in 10.0 mi West 6.9 mph - N/A   Clear
5:55 AM 46.4 °F 45.2 °F 42.3 °F 85% 29.67 in 10.0 mi South 3.5 mph - N/A   Clear
6:15 AM 46.6 °F - 44.6 °F 93% 29.66 in 10.0 mi Calm Calm - N/A   Clear
6:35 AM 47.5 °F - 44.1 °F 88% 29.67 in 10.0 mi WSW 3.5 mph - N/A   Clear
6:55 AM 48.6 °F - 44.6 °F 86% 29.66 in 10.0 mi Calm Calm - N/A   Clear
7:15 AM 50.0 °F - 45.5 °F 85% 29.65 in 10.0 mi Calm Calm - N/A   Clear
7:55 AM 56.7 °F - 47.1 °F 70% 29.65 in 10.0 mi SE 4.6 mph - N/A   Clear
8:15 AM 60.1 °F - 47.1 °F 62% 29.64 in 10.0 mi ESE 8.1 mph - N/A   Clear
8:35 AM 61.0 °F - 47.7 °F 62% 29.65 in 10.0 mi SSE 5.8 mph - N/A   Clear
8:55 AM 62.6 °F - 47.7 °F 58% 29.63 in 10.0 mi SSE 5.8 mph - N/A   Clear
9:15 AM 63.7 °F - 48.0 °F 57% 29.64 in 10.0 mi SSE 5.8 mph - N/A   Clear
9:35 AM 64.6 °F - 48.4 °F 56% 29.64 in 10.0 mi SSE 5.8 mph - N/A   Clear
9:55 AM 66.7 °F - 48.4 °F 52% 29.64 in 10.0 mi SSE 3.5 mph - N/A   Clear
10:15 AM 68.4 °F - 48.4 °F 49% 29.64 in 10.0 mi South 5.8 mph - N/A   Clear
10:35 AM 68.7 °F - 48.2 °F 48% 29.63 in 10.0 mi SE 8.1 mph - N/A   Clear
10:55 AM 68.5 °F - 47.8 °F 48% 29.63 in 10.0 mi SSE 3.5 mph - N/A   Clear
11:15 AM 71.1 °F - 48.0 °F 44% 29.64 in 10.0 mi ESE 5.8 mph - N/A   Clear
11:35 AM 73.8 °F - 47.8 °F 40% 29.63 in 10.0 mi Calm Calm - N/A   Clear
11:55 AM 72.1 °F - 47.7 °F 42% 29.63 in 10.0 mi ESE 4.6 mph - N/A   Clear
12:15 PM 73.6 °F - 47.8 °F 40% 29.63 in 10.0 mi SSE 4.6 mph - N/A   Clear
12:35 PM 74.5 °F - 47.3 °F 38% 29.61 in 10.0 mi ENE 4.6 mph - N/A   Clear
12:55 PM 76.6 °F - 45.9 °F 34% 29.61 in 10.0 mi SSE 4.6 mph - N/A   Clear
1:15 PM 76.3 °F - 45.9 °F 34% 29.60 in 10.0 mi East 10.4 mph 16.1 mph N/A   Clear
1:35 PM 77.7 °F - 46.4 °F 33% 29.59 in 10.0 mi ESE 11.5 mph - N/A   Clear
1:55 PM 78.1 °F - 45.9 °F 32% 29.59 in 10.0 mi East 9.2 mph - N/A   Clear
2:35 PM 78.8 °F - 45.7 °F 31% 29.58 in 10.0 mi East 8.1 mph - N/A   Clear
2:55 PM 78.8 °F - 45.1 °F 30% 29.57 in 10.0 mi East 8.1 mph - N/A   Clear
3:15 PM 79.7 °F - 44.6 °F 29% 29.56 in 10.0 mi East 8.1 mph 16.1 mph N/A   Clear
3:35 PM 79.5 °F - 45.3 °F 30% 29.55 in 10.0 mi East 12.7 mph 17.3 mph N/A   Clear
3:55 PM 79.2 °F - 45.3 °F 30% 29.54 in 10.0 mi East 11.5 mph 18.4 mph N/A   Clear
4:15 PM 82.2 °F - 44.1 °F 26% 29.54 in 10.0 mi East 9.2 mph - N/A   Clear
4:35 PM 81.7 °F - 44.6 °F 27% 29.54 in 10.0 mi East 8.1 mph 16.1 mph N/A   Clear
4:55 PM 81.7 °F - 44.8 °F 27% 29.54 in 10.0 mi East 17.3 mph 24.2 mph N/A   Clear
5:15 PM 80.6 °F - 45.0 °F 28% 29.54 in 10.0 mi East 13.8 mph 19.6 mph N/A   Clear
5:55 PM 78.8 °F - 45.5 °F 31% 29.53 in 10.0 mi East 13.8 mph 23.0 mph N/A   Clear
6:15 PM 77.5 °F - 45.0 °F 31% 29.53 in 10.0 mi East 12.7 mph 19.6 mph N/A   Clear
6:35 PM 77.4 °F - 45.0 °F 32% 29.53 in 10.0 mi East 13.8 mph 20.7 mph N/A   Clear
6:55 PM 75.7 °F - 44.8 °F 33% 29.53 in 10.0 mi East 13.8 mph 21.9 mph N/A   Clear
7:15 PM 74.3 °F - 45.5 °F 36% 29.54 in 10.0 mi East 10.4 mph - N/A   Clear
7:35 PM 72.3 °F - 46.2 °F 39% 29.54 in 10.0 mi East 10.4 mph - N/A   Clear
7:55 PM 70.5 °F - 46.8 °F 43% 29.54 in 10.0 mi ENE 11.5 mph - N/A   Clear
8:15 PM 69.3 °F - 47.3 °F 45% 29.54 in 10.0 mi ENE 11.5 mph - N/A   Clear
8:35 PM 68.2 °F - 47.7 °F 48% 29.55 in 10.0 mi East 10.4 mph - N/A   Clear
8:55 PM 66.4 °F - 47.7 °F 51% 29.55 in 10.0 mi East 9.2 mph - N/A   Clear
9:15 PM 65.3 °F - 48.2 °F 54% 29.55 in 10.0 mi East 8.1 mph - N/A   Clear
9:35 PM 64.2 °F - 48.4 °F 56% 29.55 in 10.0 mi East 9.2 mph - N/A   Clear
9:55 PM 64.0 °F - 48.4 °F 57% 29.55 in 10.0 mi East 11.5 mph - N/A   Clear
10:15 PM 62.2 °F - 48.6 °F 61% 29.54 in 10.0 mi East 10.4 mph - N/A   Clear
10:35 PM 61.7 °F - 48.7 °F 62% 29.53 in 10.0 mi East 8.1 mph - N/A   Clear
10:55 PM 60.4 °F - 48.6 °F 65% 29.53 in 10.0 mi East 6.9 mph - N/A   Clear
11:15 PM 59.9 °F - 48.7 °F 67% 29.53 in 10.0 mi East 8.1 mph - N/A   Clear
11:35 PM 60.1 °F - 49.1 °F 67% 29.53 in 10.0 mi East 9.2 mph - N/A   Mostly Cloudy
11:55 PM 60.1 °F - 49.1 °F 67% 29.54 in 10.0 mi East 10.4 mph - N/A   Scattered Clouds